This is the latest recevied weather packets stored in our database for station/object N9CQL. If no packets are shown the sender has not sent any weather packets the latest 10 day(s).
| Time | Temp. | Humidity | Pressure | Rain* | Wind** | Luminosity | Snow |
|---|---|---|---|---|---|---|---|
| 1777756814 | 12.78° C | 40% | 1015.8 hPa | 0 mm | - | 100 W/m² | - |
| 1777756509 | 13.33° C | 40% | 1015.8 hPa | 0 mm | - | 115 W/m² | - |
| 1777756207 | 14.44° C | 38% | 1015.8 hPa | 0 mm | - | 140 W/m² | - |
| 1777755904 | 12.78° C | 41% | 1016.1 hPa | 0 mm | - | 573 W/m² | - |
| 1777755601 | 12.78° C | 41% | 1015.8 hPa | 0 mm | - | 108 W/m² | - |
| 1777755296 | 12.78° C | 41% | 1016.1 hPa | 0 mm | - | 101 W/m² | - |
| 1777754994 | 13.89° C | 41% | 1016 hPa | 0 mm | - | 108 W/m² | - |
| 1777754691 | 13.89° C | 40% | 1016 hPa | 0 mm | - | 185 W/m² | - |
| 1777754389 | 13.89° C | 40% | 1015.9 hPa | 0 mm | - | 292 W/m² | - |
| 1777754086 | 13.89° C | 39% | 1016 hPa | 0 mm | - | 639 W/m² | - |
| 1777753782 | 13.89° C | 41% | 1016.3 hPa | 0 mm | - | 215 W/m² | - |
| 1777753479 | 15° C | 37% | 1016.2 hPa | 0 mm | - | 199 W/m² | - |
| 1777753177 | 15.56° C | 37% | 1016.3 hPa | 0 mm | - | 602 W/m² | - |
| 1777752873 | 15.56° C | 41% | 1016.4 hPa | 0 mm | - | 792 W/m² | - |
| 1777752570 | 15.56° C | 40% | 1016.4 hPa | 0 mm | - | 692 W/m² | - |
| 1777752265 | 15° C | 37% | 1016.8 hPa | 0 mm | - | 654 W/m² | - |
| 1777751963 | 14.44° C | 39% | 1016.7 hPa | 0 mm | - | 638 W/m² | - |
| 1777751660 | 12.78° C | 40% | 1016.6 hPa | 0 mm | - | 298 W/m² | - |
| 1777751356 | 13.89° C | 40% | 1016.8 hPa | 0 mm | - | 186 W/m² | - |
| 1777751054 | 13.33° C | 40% | 1016.7 hPa | 0 mm | - | 692 W/m² | - |
| 1777750750 | 12.22° C | 40% | 1017.2 hPa | 0 mm | - | 746 W/m² | - |
| 1777750447 | 12.22° C | 44% | 1017 hPa | 0 mm | - | 211 W/m² | - |
| 1777750142 | 12.22° C | 42% | 1016.9 hPa | 0 mm | - | 236 W/m² | - |
| 1777749839 | 11.67° C | 44% | 1017.2 hPa | 0 mm | - | 353 W/m² | - |
| 1777749536 | 11.67° C | 42% | 1017.2 hPa | 0 mm | - | 156 W/m² | - |
* Rain latest hour (hover to see other rain measurements)
** Current wind speed in m/s (hover to see current wind gust speed)